TimeAKST,TemperatureF,Dew PointF,Humidity,Sea Level PressureIn,VisibilityMPH,Wind Direction,Wind SpeedMPH,Gust SpeedMPH,PrecipitationIn,Events,Conditions,WindDirDegrees,DateUTC
12:53 AM,46.0,34.0,63,29.80,10.0,SSE,12.7,23.0,0.01,Rain,Light Rain,150,2013-01-13 09:53:00
1:53 AM,44.1,36.0,73,29.86,10.0,Variable,4.6,-,0.00,Rain,Light Rain,0,2013-01-13 10:53:00
3:53 AM,44.1,35.1,71,29.84,10.0,West,5.8,-,N/A,,Overcast,270,2013-01-13 12:53:00
4:53 AM,45.0,35.1,68,29.83,10.0,SSW,8.1,-,N/A,,Mostly Cloudy,210,2013-01-13 13:53:00
5:53 AM,45.0,35.1,68,29.84,10.0,Calm,Calm,-,0.00,,Mostly Cloudy,0,2013-01-13 14:53:00
6:53 AM,44.1,35.1,71,29.86,10.0,West,5.8,-,N/A,,Overcast,280,2013-01-13 15:53:00
7:53 AM,45.0,35.1,68,29.83,10.0,NW,4.6,-,N/A,,Mostly Cloudy,310,2013-01-13 16:53:00
8:53 AM,42.1,34.0,73,29.82,10.0,Calm,Calm,-,N/A,,Overcast,0,2013-01-13 17:53:00
9:53 AM,39.0,34.0,82,29.83,10.0,Calm,Calm,-,0.00,Rain,Light Rain,0,2013-01-13 18:53:00
10:53 AM,39.0,37.0,93,29.82,6.0,North,4.6,-,0.07,Rain,Light Rain,10,2013-01-13 19:53:00
11:53 AM,39.9,37.9,93,29.78,7.0,NNE,3.5,-,0.08,Rain,Light Rain,20,2013-01-13 20:53:00
12:53 PM,39.0,37.9,96,29.75,5.0,Calm,Calm,-,0.07,Rain,Light Rain,0,2013-01-13 21:53:00
1:53 PM,41.0,37.9,89,29.70,5.0,NNW,3.5,-,0.07,Rain,Light Rain,330,2013-01-13 22:53:00
2:53 PM,42.1,37.9,85,29.67,6.0,WNW,6.9,-,0.09,Rain,Light Rain,290,2013-01-13 23:53:00
3:53 PM,42.1,37.9,85,29.65,8.0,SW,4.6,-,0.05,Rain,Light Rain,230,2013-01-14 00:53:00
4:53 PM,46.0,36.0,68,29.64,10.0,SSW,8.1,-,0.01,Rain,Light Rain,200,2013-01-14 01:53:00
5:53 PM,46.0,35.1,66,29.65,10.0,Variable,5.8,-,0.00,,Overcast,0,2013-01-14 02:53:00
6:53 PM,46.9,35.1,63,29.62,10.0,South,5.8,-,N/A,,Overcast,180,2013-01-14 03:53:00
7:53 PM,44.1,36.0,73,29.63,10.0,Calm,Calm,-,N/A,,Overcast,0,2013-01-14 04:53:00
8:53 PM,45.0,36.0,71,29.62,10.0,WNW,3.5,-,N/A,,Overcast,290,2013-01-14 05:53:00
9:53 PM,41.0,36.0,82,29.60,10.0,Calm,Calm,-,N/A,,Overcast,0,2013-01-14 06:53:00
10:53 PM,48.9,36.0,61,29.61,10.0,South,17.3,21.9,0.00,Rain,Light Rain,170,2013-01-14 07:53:00
11:53 PM,45.0,37.0,74,29.60,10.0,NW,5.8,-,0.06,Rain,Light Rain,310,2013-01-14 08:53:00